AFR935 FMMI-LFPG

Flight info

Callsign AFR935
Flight time N/A
Altitude 34000
Route KEKIN DCT UVGAD UA401 MG UR775 MOGDU UN304 DWA DCT XADOX DCT KONET UG650 RASKA T513 EGMEG G660 JDW M686 OTEMO T55 KUNKI P751 METRU DCT TIGRA DCT BAR DCT PES DCT LOMED DCT AOSTA DCT ORSUD DCT MOLUS DCT UNKIR DCT TINIL
Aircraft B772/H-SDE2E3FGHIJ3J5M1P2RWXYZ/LB1D1

Departure

Time 2026-05-04 08:27
Airport Ivato International Airport (FMMI)

Arrival

Time N/A
Airport Charles de Gaulle International Airport (LFPG)
Time Latitude Longitude Altitude Speed Heading
2026-05-04 07:49 -18.79987 47.48017 4170 ft 0 kts 202°
2026-05-04 08:19 -18.79906 47.48047 4170 ft 4 kts 241°
2026-05-04 08:19 -18.79903 47.48054 4170 ft 0 kts 279°
2026-05-04 08:24 -18.79675 47.47596 4168 ft 19 kts 337°
2026-05-04 08:24 -18.79634 47.47464 4167 ft 21 kts 278°
2026-05-04 08:24 -18.79609 47.47301 4166 ft 24 kts 279°
2026-05-04 08:24 -18.79581 47.47122 4165 ft 26 kts 279°
2026-05-04 08:25 -18.79550 47.46929 4165 ft 27 kts 280°
2026-05-04 08:25 -18.79517 47.46731 4166 ft 27 kts 279°
2026-05-04 08:25 -18.79490 47.46548 4165 ft 17 kts 283°
2026-05-04 08:25 -18.79444 47.46491 4166 ft 10 kts 301°
2026-05-04 08:26 -18.79472 47.46454 4166 ft 6 kts 166°
2026-05-04 08:27 -18.80085 47.50710 5543 ft 188 kts 99°
2026-05-04 08:28 -18.80285 47.52057 6555 ft 185 kts 99°
2026-05-04 08:28 -18.80495 47.53467 6839 ft 208 kts 100°
2026-05-04 08:28 -18.80719 47.55022 7021 ft 227 kts 93°
2026-05-04 08:28 -18.80347 47.56709 7177 ft 254 kts 61°
2026-05-04 08:29 -18.79070 47.58109 7423 ft 278 kts 32°
2026-05-04 08:29 -18.77219 47.58778 7950 ft 291 kts
2026-05-04 08:29 -18.75210 47.58505 8600 ft 295 kts 336°
2026-05-04 08:31 -18.64649 47.46213 11575 ft 372 kts 309°
2026-05-04 08:33 -18.52371 47.31348 16167 ft 393 kts 310°
2026-05-04 08:33 -18.50560 47.29163 16652 ft 400 kts 310°
2026-05-04 08:35 -18.33942 47.18894 20275 ft 415 kts 343°
2026-05-04 08:35 -18.31173 47.17997 20735 ft 418 kts 343°
2026-05-04 08:35 -18.28389 47.17088 21198 ft 420 kts 343°
2026-05-04 08:35 -18.25593 47.16169 21685 ft 422 kts 343°
2026-05-04 08:37 -18.08480 47.10516 24237 ft 436 kts 343°
2026-05-04 08:37 -18.05615 47.09569 24555 ft 439 kts 343°
2026-05-04 08:37 -18.02688 47.08601 24890 ft 442 kts 343°
2026-05-04 08:38 -17.99749 47.07628 25244 ft 445 kts 343°
2026-05-04 08:38 -17.96787 47.06648 25582 ft 447 kts 342°
2026-05-04 08:38 -17.93809 47.05662 25912 ft 450 kts 342°
2026-05-04 08:40 -17.72441 46.98605 28223 ft 470 kts 341°
2026-05-04 08:40 -17.69314 46.97574 28573 ft 472 kts 341°
2026-05-04 08:40 -17.66168 46.96537 28868 ft 476 kts 341°
2026-05-04 08:41 -17.63001 46.95494 29228 ft 477 kts 341°
2026-05-04 08:41 -17.59830 46.94450 29586 ft 479 kts 341°
2026-05-04 08:41 -17.56635 46.93398 29878 ft 483 kts 341°
2026-05-04 08:41 -17.53470 46.92356 30286 ft 483 kts 341°
2026-05-04 08:42 -17.50263 46.91301 30580 ft 485 kts 341°
2026-05-04 08:42 -17.47037 46.90240 30822 ft 487 kts 341°
2026-05-04 08:42 -17.43795 46.89174 31132 ft 489 kts 341°
2026-05-04 08:42 -17.40545 46.88106 31412 ft 491 kts 340°
2026-05-04 08:43 -17.37286 46.87035 31715 ft 491 kts 341°
2026-05-04 08:43 -17.34022 46.85964 32002 ft 492 kts 341°
2026-05-04 08:43 -17.30750 46.84889 32247 ft 494 kts 341°
2026-05-04 08:43 -17.27506 46.83823 32485 ft 495 kts 341°
2026-05-04 08:44 -17.24218 46.82745 32775 ft 495 kts 341°
2026-05-04 08:44 -17.20935 46.81669 33167 ft 493 kts 341°
2026-05-04 08:46 -16.98026 46.74169 34578 ft 494 kts 341°
2026-05-04 08:46 -16.94799 46.73115 34897 ft 491 kts 341°
2026-05-04 08:46 -16.91543 46.72051 35219 ft 489 kts 341°
2026-05-04 08:46 -16.88298 46.70990 35495 ft 488 kts 341°
2026-05-04 08:47 -16.85061 46.69933 35739 ft 487 kts 341°
2026-05-04 08:47 -16.81825 46.68876 35952 ft 487 kts 341°
2026-05-04 08:47 -16.78581 46.67817 35990 ft 490 kts 341°
2026-05-04 08:48 -16.72073 46.65694 36051 ft 489 kts 341°
2026-05-04 08:48 -16.65646 46.63600 36052 ft 486 kts 341°
2026-05-04 08:49 -16.59215 46.61505 36049 ft 483 kts 341°
2026-05-04 08:50 -16.36770 46.54488 36050 ft 484 kts 343°
2026-05-04 08:51 -16.30254 46.52649 36047 ft 486 kts 343°
2026-05-04 08:51 -16.23722 46.50779 36038 ft 488 kts 343°
2026-05-04 08:52 -16.17176 46.48890 36033 ft 489 kts 342°
2026-05-04 08:52 -16.10661 46.47008 36031 ft 489 kts 343°
2026-05-04 08:54 -15.84443 46.39458 36020 ft 488 kts 343°
2026-05-04 08:55 -15.77954 46.37592 36020 ft 487 kts 343°
2026-05-04 08:55 -15.71428 46.35716 36018 ft 486 kts 343°
2026-05-04 08:57 -15.47931 46.32962 36016 ft 489 kts 355°
2026-05-04 09:01 -15.00264 46.29965 36004 ft 492 kts 355°
2026-05-04 09:01 -14.93481 46.29538 36001 ft 492 kts 356°
2026-05-04 09:02 -14.86649 46.29110 36002 ft 492 kts 355°
2026-05-04 09:02 -14.79817 46.28680 36005 ft 492 kts 355°
2026-05-04 09:03 -14.72985 46.28251 36003 ft 492 kts 355°
2026-05-04 09:03 -14.66146 46.27822 36003 ft 492 kts 355°
2026-05-04 09:04 -14.59352 46.27399 35991 ft 493 kts 355°
2026-05-04 09:04 -14.52513 46.26972 35993 ft 492 kts 355°
2026-05-04 09:05 -14.45678 46.26549 36001 ft 492 kts 355°
2026-05-04 09:05 -14.38847 46.26124 36000 ft 491 kts 355°
2026-05-04 09:06 -14.32070 46.25704 35996 ft 491 kts 354°
2026-05-04 09:08 -14.04896 46.24018 35988 ft 488 kts 355°
2026-05-04 09:08 -13.98177 46.23602 35991 ft 487 kts 355°
2026-05-04 09:09 -13.91418 46.23185 36002 ft 486 kts 355°
2026-05-04 09:09 -13.84666 46.22767 35996 ft 486 kts 355°
2026-05-04 09:10 -13.77918 46.22350 35993 ft 486 kts 355°
2026-05-04 09:10 -13.71216 46.21936 35998 ft 486 kts 355°
2026-05-04 09:11 -13.64468 46.21519 35993 ft 486 kts 355°
2026-05-04 09:11 -13.57715 46.21103 35987 ft 486 kts 355°
2026-05-04 09:12 -13.50956 46.20685 35995 ft 486 kts 355°
2026-05-04 09:14 -13.23974 46.19019 35987 ft 486 kts 355°
2026-05-04 09:14 -13.17222 46.18603 35989 ft 486 kts 355°
2026-05-04 09:15 -13.10515 46.18189 35983 ft 486 kts 355°
2026-05-04 09:15 -13.03767 46.17774 35988 ft 486 kts 355°
2026-05-04 09:17 -12.73498 46.15913 35988 ft 484 kts 355°
2026-05-04 09:18 -12.67913 46.15569 35985 ft 484 kts 356°
2026-05-04 09:18 -12.61198 46.15157 35991 ft 483 kts 356°
2026-05-04 09:19 -12.53399 46.14679 35982 ft 483 kts 356°
2026-05-04 09:19 -12.46690 46.14268 35983 ft 483 kts 356°
2026-05-04 09:20 -12.41113 46.13926 35989 ft 483 kts 356°
2026-05-04 09:20 -12.34408 46.13515 35985 ft 483 kts 356°
2026-05-04 09:21 -12.27698 46.13106 35992 ft 483 kts 356°
2026-05-04 09:21 -12.20991 46.12706 35984 ft 483 kts 356°
2026-05-04 09:22 -12.14328 46.12309 35983 ft 483 kts 356°
2026-05-04 09:22 -12.07627 46.11910 35986 ft 482 kts 356°
2026-05-04 09:23 -12.00924 46.11510 35987 ft 482 kts 356°
2026-05-04 09:23 -11.94229 46.11110 35988 ft 482 kts 356°
2026-05-04 09:25 -11.67544 46.09520 35985 ft 481 kts 356°
2026-05-04 09:26 -11.60868 46.09122 35979 ft 480 kts 357°
2026-05-04 09:26 -11.54242 46.08728 35986 ft 480 kts 357°
2026-05-04 09:27 -11.47572 46.08332 35982 ft 480 kts 356°
2026-05-04 09:27 -11.40905 46.07935 35983 ft 480 kts 357°
2026-05-04 09:28 -11.34230 46.07538 35986 ft 480 kts 357°
2026-05-04 09:28 -11.27557 46.07142 35990 ft 480 kts 357°
2026-05-04 09:29 -11.20928 46.06749 35979 ft 481 kts 357°
2026-05-04 09:29 -11.14252 46.06353 35978 ft 481 kts 357°
2026-05-04 09:30 -11.07576 46.05956 35980 ft 481 kts 358°
2026-05-04 09:30 -11.00900 46.05561 35978 ft 481 kts 358°
2026-05-04 09:31 -10.94270 46.05168 35983 ft 481 kts 357°
2026-05-04 09:31 -10.87594 46.04773 35975 ft 481 kts 357°
2026-05-04 09:32 -10.80920 46.04377 35974 ft 481 kts 357°
2026-05-04 09:34 -10.54267 46.02801 35979 ft 480 kts 358°
2026-05-04 09:34 -10.47591 46.02407 36094 ft 480 kts 358°
2026-05-04 09:35 -10.44304 46.02213 36330 ft 479 kts 357°
2026-05-04 09:35 -10.40976 46.02017 36602 ft 478 kts 358°
2026-05-04 09:35 -10.37668 46.01821 36905 ft 476 kts 358°
2026-05-04 09:35 -10.34355 46.01625 37079 ft 477 kts 358°
2026-05-04 09:37 -10.11288 46.00266 37966 ft 476 kts 358°
2026-05-04 09:37 -10.07986 46.00071 37971 ft 474 kts 358°
2026-05-04 09:38 -10.01424 45.99684 37969 ft 471 kts 358°
2026-05-04 09:38 -9.94893 45.99297 37965 ft 469 kts 359°
2026-05-04 09:39 -9.88375 45.98908 37980 ft 469 kts 359°
2026-05-04 09:39 -9.81890 45.98522 37976 ft 471 kts 359°
2026-05-04 09:40 -9.75334 45.98131 37967 ft 473 kts 359°
2026-05-04 09:40 -9.68751 45.97740 37975 ft 475 kts 359°
2026-05-04 09:42 -9.42246 45.96163 37966 ft 479 kts 359°
2026-05-04 09:43 -9.35593 45.95768 37960 ft 479 kts 359°
2026-05-04 09:43 -9.28946 45.95373 37962 ft 478 kts 359°
2026-05-04 09:44 -9.22348 45.94981 37962 ft 478 kts 359°
2026-05-04 09:46 -8.95872 45.93411 37964 ft 477 kts 359°
2026-05-04 09:46 -8.89250 45.93018 37962 ft 477 kts 360°
2026-05-04 09:47 -8.82623 45.92626 37964 ft 477 kts 359°
2026-05-04 09:49 -8.56138 45.91058 37954 ft 478 kts 359°
2026-05-04 09:51 -8.32912 45.89685 37955 ft 479 kts 359°
2026-05-04 09:51 -8.26254 45.89292 37952 ft 479 kts 359°
2026-05-04 09:52 -8.19595 45.88899 37947 ft 479 kts 359°
2026-05-04 09:52 -8.12934 45.88506 37940 ft 480 kts 359°
2026-05-04 09:53 -8.06263 45.88112 37953 ft 480 kts 359°
2026-05-04 09:53 -7.99638 45.87722 37954 ft 480 kts 359°
2026-05-04 09:54 -7.92966 45.87328 37945 ft 480 kts 359°
2026-05-04 09:54 -7.86290 45.86935 37940 ft 481 kts 359°
2026-05-04 09:55 -7.79614 45.86541 37942 ft 480 kts 359°
2026-05-04 09:55 -7.72985 45.86151 37944 ft 480 kts 359°
2026-05-04 09:56 -7.66312 45.85758 37943 ft 480 kts 359°
2026-05-04 09:56 -7.59642 45.85365 37934 ft 480 kts 359°
2026-05-04 09:57 -7.52970 45.84972 37938 ft 480 kts 359°
2026-05-04 09:57 -7.46300 45.84580 37945 ft 480 kts 359°
2026-05-04 09:58 -7.39672 45.84190 37937 ft 480 kts 359°
2026-05-04 09:58 -7.33003 45.83798 37930 ft 480 kts 359°
2026-05-04 10:00 -7.06338 45.82231 37945 ft 481 kts 359°
2026-05-04 10:04 -6.59475 45.79482 37936 ft 482 kts 359°
2026-05-04 10:04 -6.52828 45.79093 37936 ft 482 kts 359°
2026-05-04 10:05 -6.46144 45.78701 37937 ft 481 kts 359°
2026-05-04 10:05 -6.39471 45.78310 37936 ft 480 kts 359°
2026-05-04 10:06 -6.32808 45.77920 37941 ft 479 kts 359°
2026-05-04 10:06 -6.26153 45.77530 37933 ft 479 kts 359°
2026-05-04 10:08 -6.02959 45.76173 37933 ft 477 kts 359°
2026-05-04 10:08 -5.96329 45.75785 37934 ft 477 kts 359°
2026-05-04 10:09 -5.89739 45.75398 37939 ft 477 kts 359°
2026-05-04 10:09 -5.83106 45.75008 37936 ft 478 kts 359°
2026-05-04 10:10 -5.76473 45.74618 37937 ft 478 kts 359°
2026-05-04 10:10 -5.69829 45.74228 37925 ft 479 kts 359°
2026-05-04 10:11 -5.63213 45.73839 37943 ft 480 kts 359°
2026-05-04 10:11 -5.56526 45.73447 37939 ft 482 kts 359°
2026-05-04 10:12 -5.49811 45.73053 37937 ft 484 kts 359°
2026-05-04 10:12 -5.43077 45.72657 37934 ft 485 kts 359°
2026-05-04 10:13 -5.36380 45.72264 37937 ft 485 kts 359°
2026-05-04 10:13 -5.29643 45.71869 37933 ft 485 kts 359°
2026-05-04 10:14 -5.22905 45.71473 37930 ft 485 kts 359°
2026-05-04 10:16 -4.96103 45.69902 37936 ft 482 kts 359°
2026-05-04 10:16 -4.89411 45.69510 37933 ft 482 kts 359°
2026-05-04 10:17 -4.82723 45.69118 37934 ft 481 kts 359°
2026-05-04 10:19 -4.56002 45.67553 37931 ft 482 kts 359°
2026-05-04 10:19 -4.49302 45.67161 37934 ft 483 kts 359°
2026-05-04 10:20 -4.42640 45.66771 37939 ft 483 kts 359°
2026-05-04 10:20 -4.35929 45.66379 37935 ft 483 kts 359°
2026-05-04 10:21 -4.29215 45.65986 37936 ft 483 kts 359°
2026-05-04 10:21 -4.22497 45.65593 37941 ft 484 kts 359°
2026-05-04 10:22 -4.12414 45.65004 37933 ft 484 kts 359°
2026-05-04 10:23 -4.05739 45.64618 37937 ft 484 kts 359°
2026-05-04 10:25 -3.78867 45.63059 37925 ft 485 kts 359°
2026-05-04 10:25 -3.72126 45.62668 37941 ft 485 kts 359°
2026-05-04 10:26 -3.65376 45.62276 37940 ft 486 kts 359°
2026-05-04 10:26 -3.58620 45.61885 37931 ft 487 kts 359°
2026-05-04 10:27 -3.51902 45.61495 37931 ft 487 kts 359°
2026-05-04 10:27 -3.45125 45.61102 37946 ft 488 kts 359°
2026-05-04 10:28 -3.38335 45.60709 37930 ft 489 kts 359°
2026-05-04 10:28 -3.31540 45.60315 37933 ft 489 kts 359°
2026-05-04 10:29 -3.24784 45.59923 37946 ft 490 kts 359°
2026-05-04 10:29 -3.17981 45.59529 37930 ft 490 kts 359°
2026-05-04 10:30 -3.11183 45.59135 37931 ft 489 kts 359°
2026-05-04 10:30 -3.04390 45.58742 37934 ft 489 kts 359°
2026-05-04 10:31 -2.97596 45.58348 37933 ft 488 kts 359°
2026-05-04 10:32 -2.73937 45.56978 37931 ft 487 kts 359°
2026-05-04 10:33 -2.67178 45.56587 37931 ft 487 kts 359°
2026-05-04 10:33 -2.60468 45.56199 37922 ft 486 kts 359°